Regional Weather Roundup
Issued by NWS

Home | Current Version | Previous Version | Text Only | Print | Product List | Glossary On
Versions: 1 2 3 4 5 6 7 8 9 10 11 12 13 14 15 16 17 18 19 20 21 22 23 24 25 26 27 28 29 30 31 32 33 34 35 36 37 38 39 40 41 42 43 44 45 46 47 48 49 50
497
ASUS44 KEWX 081603
RWRTX
SOUTH TEXAS REGIONAL WEATHER ROUNDUP
NATIONAL WEATHER SERVICE AUSTIN/SAN ANTONIO TX
1000 AM CST MON FEB 08 2016

NOTE: "FAIR" INDICATED FEW OR NO CLOUDS BELOW 12,000 FEET WITH NO
SIGNIFICANT WEATHER AND/OR OBSTRUCTIONS TO VISIBILITY.

* - THESE STATIONS ARE NOT NWS OR FAA STATIONS...AND ARE NOT SUBJECT
    TO NWS AND FAA QUALITY CONTROL.

TXZ171-172-183>190-081700-
TEXAS HILL COUNTRY AND EDWARDS PLATEAU

CITY           SKY/WX    TMP DP  RH WIND       PRES   REMARKS
JUNCTION       CLOUDY    47  12  24 N12G20    30.48R WCI  42
*LLANO         CLOUDY    48  16  27 N10G17    30.50R WCI  44
BURNET         CLOUDY    50  14  23 N14G20    30.46R WCI  45
*HORSESHOE BAY CLOUDY    50  19  29 NW12      30.46R WCI  45
*KERRVILLE     CLOUDY    49  13  23 N18       30.44R WCI  43
*FREDERICKSBRG CLOUDY    47  13  25 N15       30.44R WCI  40
*ROCKSPRINGS   CLOUDY    45  12  26 N12G21    30.47R WCI  39
*BOERNE STAGE  CLOUDY    46  14  27 N16G28    30.42R WCI  40
*CASTROVILLE   CLOUDY    54  13  20 N15G23    30.42S
HONDO          CLOUDY    54  16  22 N17       30.44R
*UVALDE        CLOUDY    55  14  19 N12       30.46R
DEL RIO        CLOUDY    52  15  23 NW14      30.52R
LAUGHLIN AFB   NOT AVBL
CARRIZO SPRGS  MOSUNNY   54  25  32 N10G17    30.47R
*EAGLE PASS    SUNNY     55  19  24 NW13G18   30.51R
$$

TXZ173-191>194-202-209-217>225-228-081700-
CENTRAL AND SOUTH CENTRAL TEXAS

CITY           SKY/WX    TMP DP  RH WIND       PRES   REMARKS
GEORGETOWN     SUNNY     52  18  25 N17       30.44R
AUSTIN/BERGSTM PTSUNNY   54  16  22 N17       30.43R
AUSTIN/MABRY   SUNNY     53  18  25 N10G18    30.44R
*AUSTIN/EXEC   SUNNY     52  18  25 N24       30.43R
*LAGO VISTA    SUNNY     52  15  23 N13G21    30.44R
SAN MARCOS     SUNNY     54  19  26 N18       30.44R
NEW BRAUNFELS  CLOUDY    55  14  19 N22       30.41R
RANDOLPH AFB   NOT AVBL
PT SAN ANTONIO NOT AVBL
SAN ANTONIO    CLOUDY    53  19  26 N13G28    30.42R
STINSON FIELD  CLOUDY    55  16  21 N12G22    30.41R
*PLEASANTON    CLOUDY    56  19  23 N10G21    30.42R
*LA GRANGE     SUNNY     54  25  32 N15       30.39R
*GIDDINGS      SUNNY     51  20  28 N13G18    30.45R
*GONZALES      SUNNY     53  24  31 N17G24    30.40S
$$

TXZ163>164-176>182-195>201-210>213-226-227-235-081700-
SOUTHEAST TEXAS

CITY           SKY/WX    TMP DP  RH WIND       PRES   REMARKS
COLLEGE STN    SUNNY     52  19  27 N16G25    30.39R
*BRYAN         SUNNY     51  21  30 NW13G20   30.40R
*CALDWELL      SUNNY     50  18  27 NW18      30.44R WCI  44
*CROCKETT      SUNNY     50  23  34 NW14G20   30.37R WCI  45
*BRENHAM       SUNNY     53  23  31 N20       30.41R
HUNTSVILLE     SUNNY     52  18  26 NW14G29   30.36R
CONROE         SUNNY     53  16  23 NW14G25   30.36R
HOUSTON BUSH   MOSUNNY   55  17  22 N16G24    30.36R
HOUSTON HOBBY  MOSUNNY   56  14  19 NW23G30   30.35R
*HOUSTON SW AP SUNNY     54  18  24 N14       30.36S
PEARLAND       SUNNY     57  15  19 N15G21    30.36R
HOUSTON HOOKS  SUNNY     54  17  23 N17G30    30.36R
ELLINGTON FLD  MOSUNNY   55  27  33 NW20G29   30.36R
SUGAR LAND     SUNNY     55  22  27 N20G26    30.36R
*HOUSTON EXEC  SUNNY     52  27  37 N20       30.39R
*CLEVELAND MUN SUNNY     53  23  31 N18       30.34S
*WHARTON       SUNNY     53  26  34 N20G26    30.38R
*COLUMBUS      FAIR      53  23  31 N16G23    30.39R
*EAGLE LAKE    SUNNY     52  24  34 N18       30.38R
$$

TXZ214>216-236>238-081700-
THE UPPER TEXAS COAST

CITY           SKY/WX    TMP DP  RH WIND       PRES   REMARKS
*ORANGE        SUNNY     53  17  24 NW13G22   30.30R
PORT ARTHUR    SUNNY     54  23  30 N23G33    30.29R
GALVESTON      SUNNY     55  29  36 N22       30.34R
ANGLETON       SUNNY     57  26  30 N18       30.35R
*BAY CITY      SUNNY     56  27  33 N18G28    30.36R
PALACIOS       SUNNY     55  31  39 N23       30.37R
$$

TXZ229>234-239>247-081700-
TEXAS COASTAL BEND AND RIO GRANDE PLAINS

CITY           SKY/WX    TMP DP  RH WIND       PRES   REMARKS
VICTORIA       SUNNY     56  25  30 N23G30    30.39R
*BEEVILLE      SUNNY     58  28  31 NE15G26   30.39R
ROCKPORT       CLOUDY    58  37  45 N14G24    30.38R
*PORT ARANSAS  SUNNY     53  41  64 NE18G30   30.36R
*PORT LAVACA   SUNNY     55  32  41 N20G29    30.38R
*INGLESIDE     CLOUDY    51  39  63 NE18G25   30.36R
CORPUS CHRISTI CLOUDY    55  33  43 N28       30.38R
CORPUS NAS     PTSUNNY   55  39  54 NE25G33   30.37R
*ROBSTOWN      CLOUDY    56  33  41 NE20      30.37R
ALICE          PTSUNNY   56  30  37 NE23G30   30.38R
KINGSVILLE NAS CLOUDY    56  36  47 NE20G28   30.38R
COTULLA        MOSUNNY   58  21  24 N18       30.45R
*FAITH RANCH   SUNNY     59  21  23 N18G25    30.48R
LAREDO         MOSUNNY   58  26  29 N16G26    30.45R
$$

TXZ248>255-081700-
DEEP SOUTH TEXAS

CITY           SKY/WX    TMP DP  RH WIND       PRES   REMARKS
BROWNSVILLE    MOSUNNY   66  55  67 NW12      30.31R
PORT ISABEL    MOSUNNY   65  55  70 N16       30.31R
*SOUTH PADRE     N/A     66  55  68 NE10      30.30R VSB 1/4
HARLINGEN      PTSUNNY   64  50  60 N15       30.32R
*HEBBRONVILLE  NOT AVBL
MCALLEN        PTSUNNY   64  47  53 N13       30.35R
*WESLACO       PTSUNNY   59  48  67 N12       30.32R
FALFURRIAS     PTSUNNY   56  33  41 NE21G31   30.37R
EDINBURG       MOSUNNY   60  41  50 N10       30.35R
*ZAPATA        MOSUNNY   56  31  38 N13G18    30.40R
$$

TXZ213>215-236>238-242>244-246-247-251-254-255-081700-
CMAN STATIONS

STATION/POSITION TIME  TEMP    WIND        PRES    WAVE
                       AIR SEA DIR/SP/G            HT/PER
                 (UTC) (F)     (DEG/KT/KT) (MB)    (FT/S)
SABINE PASS      1500   52 56  340/ 16/ 24 1027.0
SEA RIM ST PARK  1500   49     340/ 12/ 14 1026.4
NORTH JETTY/GLS  1500   53 56   30/ 25/ 28   N/A
EAGLE POINT      1500   53 51   10/ 14/ 21 1027.2
MORGANS POINT    1500   53 53  310/  8/ 18 1027.0
MISSION/ARANSAS  1500   49                 1028.0
PORT O`CONNOR    1500           10/ 26/ 32   N/A
PORT ARANSAS     1500   51 59  360/ 18/ 21 1027.5
MALAQUITE BEACH  1500   51 59  340/ 17/ 19 1026.8
BAFFIN BAY       1500   51 57  360/ 14/ 17 1026.7
PORT ISABEL      1500   65 60  330/  3/  4 1025.0
$$

GMZ080-GMZ150>470-081700-
OFFSHORE BUOY REPORTS

STATION/POSITION TIME  TEMP    WIND        PRES    WAVE
                       AIR SEA DIR/SP/G            HT/PER
                 (UTC) (F)     (DEG/KT/KT) (MB)    (FT/S)
20 E GALVESTON   1450   53 58  330/ 23/ 27 1025.6    3/ 4
90 E PT ARANSAS  1450   62 69  360/ 17/ 21 1025.6    3/ 4
35 NE PT MANSFLD 1450   61 69  360/ 16/ 17 1025.1    1/ 7
200 E PT ISABEL  1450                        N/A     2/ 6
$$




USA.gov is the U.S. government's official web portal to all federal, state and local government web resources and services.